#timestamp,LO_Frequency,Hit,StdDev 
1573351215.3,286047002.1,N
1573351235.1,286047004.6,Y
1573351255.9,286047007.6,P
1573351275.7,286047006.9,N
1573351295.6,286047005.2,N
1573351315.4,286047003.4,N
1573351335.2,286047003.3,N
1573351355.1,286047001.3,N
1573351356.0,286047001.3,N
1573351375.8,286047001.9,N
1573351395.6,286047003.1,N
1573351415.5,286047005.7,N
1573351435.3,286047005.7,N
1573351455.2,286047006.4,Y
1573351475.9,286047003.1,P
1573351495.7,286047003.3,P
1573351515.6,286047004.9,P
1573351535.4,286047005.8,Y
1573351555.2,286047004.2,P
1573351575.1,286047001.4,P
1573351576.0,286047001.4,N
1573351595.8,286047001.8,N
1573351615.7,286047000.3,N
1573351635.5,286047002.5,N
1573351655.3,286047002.2,N
1573351675.2,286047002.4,N
1573351695.0,286047001.9,N
1573351695.9,286047001.9,N
1573351715.8,286047004.2,Y
1573351735.6,286046998.2,P
1573351755.4,286047000.1,N
1573351775.3,286047000.3,N
1573351795.1,286047000.8,N
1573351815.8,286047001.0,N
1573351835.7,286046998.1,N
1573351855.5,286046998.4,N
1573351875.4,286047002.4,N
1573351895.2,286047002.7,N
1573351915.0,286047002.2,N
1573351915.9,286047002.2,N
1573351935.8,286047003.5,N
1573351955.6,286047005.8,Y
1573351975.4,286047004.2,P
1573351995.3,286047003.6,N
1573352015.1,286047004.2,N
1573352035.9,286047004.0,N
1573352055.7,286047004.7,Y
1573352075.5,286047003.8,P
1573352095.4,286047007.1,P
1573352115.2,286047007.3,P
1573352135.0,286047005.1,N
1573352136.0,286047005.1,Y
1573352155.8,286047000.4,P
1573352175.6,286047001.5,N
1573352195.5,286047001.8,N
1573352215.3,286047005.8,Y
1573352235.1,286047002.3,P
1573352255.9,286047002.8,P
1573352275.7,286047000.9,P
1573352295.6,286046999.1,N
1573352315.4,286046998.5,N
1573352335.2,286047002.3,N
1573352355.1,286047003.8,N
1573352356.0,286047003.8,N
1573352375.8,286047005.9,Y
1573352395.6,286047003.5,P
1573352415.5,286047002.0,N
1573352435.3,286047001.7,N
1573352455.2,286047001.5,N
1573352475.9,286047002.1,N
1573352495.7,286047001.8,N
1573352515.6,286047003.4,Y
1573352535.4,286047002.8,P
1573352555.2,286047000.2,N
1573352575.1,286047000.3,N
1573352576.0,286047000.3,N
1573352595.8,286047000.2,N
1573352615.7,286047002.3,N
1573352635.5,286047002.4,N
1573352655.3,286046999.9,N
1573352675.2,286047002.3,N
1573352695.0,286047000.2,N
1573352695.9,286047000.2,N
1573352715.8,286047001.7,N
1573352735.6,286047004.3,Y
1573352755.4,286046999.7,P
1573352775.3,286047002.2,P
1573352795.1,286047005.7,P
1573352815.8,286047007.5,Y
1573352835.7,286047003.8,P
1573352855.5,286047001.7,N
1573352875.4,286047004.0,P
1573352895.2,286047001.6,N
1573352915.0,286047003.2,Y
1573352915.9,286047003.2,P
1573352935.8,286047003.6,P
1573352955.6,286047003.1,P
1573352975.5,286047003.4,Y
1573352995.3,286047000.6,P
1573353015.1,286047000.6,N
1573353035.9,286047001.2,N
1573353055.7,286047000.5,N
1573353075.5,286046998.1,N
1573353095.4,286047000.2,N
1573353115.2,286047001.7,N
1573353135.1,286047002.9,N
1573353136.0,286047002.9,N
1573353155.8,286047006.0,Y
1573353175.6,286047001.4,P
1573353195.5,286047003.6,P
1573353215.3,286047003.1,N
1573353235.1,286047003.3,Y
1573353255.9,286047002.3,P
1573353275.7,286047002.7,P
1573353295.6,286047000.5,N
1573353315.4,286047000.8,N
1573353335.2,286047000.9,N
1573353355.1,286047002.8,Y
1573353356.0,286047002.8,P
1573353375.8,286046998.5,N
1573353395.6,286047001.1,N
1573353415.5,286047000.0,N
1573353435.3,286047004.4,N
1573353455.2,286047001.9,N
1573353475.9,286047001.9,N
1573353495.7,286047001.8,N
1573353515.6,286047005.9,Y
1573353535.4,286047002.6,P
1573353555.2,286047002.4,P
1573353575.1,286047002.1,P
1573353576.0,286047002.1,Y
1573353595.8,286046999.0,P
1573353615.7,286047002.4,N
1573353635.5,286047001.7,N
1573353655.3,286047002.1,N
1573353675.2,286047002.2,N
1573353695.0,286047002.2,N
1573353695.9,286047002.2,N
1573353715.8,286047003.8,Y
1573353735.6,286047004.2,P
1573353755.4,286047006.0,P
1573353775.3,286047006.6,P
1573353795.1,286047005.7,Y
1573353815.8,286047002.2,P
1573353835.7,286047002.8,N
1573353855.5,286047004.2,P
1573353875.4,286047002.2,N
1573353895.2,286047001.5,N
1573353915.0,286047003.7,Y
1573353915.9,286047003.7,P
1573353935.8,286047001.1,N
1573353955.6,286046996.9,N
1573353975.4,286046999.6,N
1573353995.3,286046996.9,N
1573354015.1,286046998.6,N
1573354035.9,286046999.2,N
1573354055.7,286046996.6,N
1573354075.5,286046995.0,N
1573354095.4,286046995.1,N
1573354115.2,286046996.4,N
1573354135.0,286046993.4,N
1573354135.9,286046993.4,N
1573354155.8,286046992.5,N
1573354175.6,286046991.9,N
1573354195.5,286046993.5,N
1573354215.3,286046993.9,N
1573354235.1,286046994.6,N
1573354255.9,286046994.1,N
1573354275.7,286046993.5,N
1573354295.5,286046994.8,N
1573354315.4,286046990.4,N
1573354335.2,286046990.6,N
1573354355.1,286046992.5,N
1573354356.0,286046992.5,N
1573354375.8,286046994.4,N
1573354395.6,286046993.8,N
1573354415.5,286046993.3,N
1573354435.3,286046996.3,N
1573354455.1,286046997.5,N
1573354475.9,286046997.4,N
1573354495.7,286046996.8,N
1573354515.6,286046997.7,N
1573354535.4,286046998.1,N
1573354555.2,286046998.8,N
1573354575.1,286046998.1,N
1573354576.0,286046998.1,N
1573354595.8,286047002.8,N
1573354615.7,286047000.1,N
1573354635.5,286047000.3,N
1573354655.3,286047001.2,N
1573354675.2,286047000.0,N
1573354695.9,286047002.7,N
1573354715.7,286046998.1,N
1573354735.6,286047000.8,N
1573354755.4,286046999.6,N
1573354775.2,286046998.3,N
1573354795.1,286046998.9,N
1573354796.0,286046998.9,N
